Theta_e
315 315 315 314 312 311 311 310 309 309 308 307 307 307 307 308 308 308 308 306 305 306 308 308 308 308 308 308 308 309 312 316 316 315 315 313 312 312 313 314 314 313 313 313 312 313 312 313 313 313 314 314 313 314 313 312 312 316 320 317 314 316 317 316 317 315 315 316 313 310 311 313 313 311 310 310 311 313 312 312 312 312 312 313 312 311 313 319
315 315 314 314 313 312 311 309 309 308 308 308 307 307 307 308 307 307 307 307 305 306 308 308 308 308 308 308 308 310 314 315 315 316 314 312 312 312 313 313 314 314 313 313 312 313 313 313 313 313 315 314 313 315 315 313 313 316 319 316 315 319 315 314 315 313 314 315 314 311 310 312 313 312 311 312 314 312 313 314 312 312 314 313 312 314 316 320
315 315 314 314 313 311 310 309 309 308 308 308 307 307 307 307 307 307 307 306 305 306 307 308 308 308 308 308 308 310 314 315 315 316 313 312 312 312 312 314 314 314 314 313 313 312 313 312 312 312 314 314 312 314 316 314 313 313 315 316 316 317 313 310 313 312 310 312 313 311 309 310 311 311 311 313 314 313 314 314 313 314 314 315 315 318 319 320
315 314 314 313 313 311 310 309 309 308 307 308 307 307 307 307 307 306 307 306 305 306 307 308 308 308 308 308 308 310 313 315 314 314 313 312 312 312 313 314 314 314 314 313 313 312 312 312 312 313 315 314 312 313 314 313 313 313 313 315 313 312 313 311 309 310 308 309 313 311 309 311 310 309 311 313 314 314 315 315 314 314 314 315 316 319 321 321
314 314 313 312 312 311 311 310 308 308 308 307 307 307 307 307 307 306 306 305 305 306 307 307 308 308 307 308 309 310 312 312 312 312 313 312 312 312 313 314 314 314 314 313 313 312 312 313 314 315 315 314 314 314 313 310 311 313 311 311 310 310 313 310 307 308 307 308 311 311 311 312 310 309 311 312 314 315 314 314 313 313 313 315 317 320 321 321
314 313 312 312 311 311 311 310 309 309 308 307 307 307 307 306 306 306 305 305 305 306 307 307 307 307 307 309 309 310 311 310 310 312 312 312 312 312 314 315 314 314 313 313 312 312 313 313 314 315 314 313 313 314 312 309 309 314 312 308 308 309 311 309 307 307 306 309 311 311 311 310 310 312 310 310 314 313 311 310 311 310 310 312 318 321 321 322
313 312 312 311 311 311 311 310 310 309 308 308 307 307 307 306 306 305 305 305 305 306 306 307 307 307 308 309 309 311 313 310 310 313 312 312 312 312 315 314 314 313 313 313 312 313 314 314 314 314 314 313 312 313 312 309 310 314 313 310 308 308 309 308 306 306 306 310 310 309 310 310 312 313 309 309 313 312 309 309 310 309 308 311 317 320 321 322
313 312 311 310 310 311 310 310 310 309 308 307 307 307 306 306 305 305 304 305 305 306 306 307 307 308 308 309 312 313 312 312 313 314 312 312 312 312 314 314 314 313 313 313 312 314 314 314 314 313 314 313 312 312 310 311 313 314 313 310 309 308 309 306 305 306 307 309 308 308 311 311 311 310 309 311 313 311 311 311 310 310 309 310 315 319 321 322
312 311 310 309 309 310 310 310 309 309 308 307 307 307 306 305 305 305 305 305 306 306 307 307 307 308 308 310 314 313 311 314 315 314 312 312 312 313 315 314 314 313 313 312 311 313 314 314 313 312 313 312 312 312 310 312 313 313 312 311 311 310 308 307 307 307 308 308 308 310 313 311 308 308 311 313 313 311 310 311 310 310 311 311 313 317 321 321
311 310 309 309 309 309 309 309 308 308 308 307 307 307 306 305 304 305 305 305 306 306 307 308 308 308 308 310 314 311 312 316 316 314 312 312 312 314 315 314 313 314 313 312 311 312 314 314 312 312 313 312 311 311 311 312 312 311 311 312 312 310 309 308 310 309 308 309 309 312 313 311 308 309 314 315 310 308 310 311 310 311 312 312 312 315 318 320
311 309 309 309 308 309 308 308 306 306 307 307 307 306 305 305 305 305 305 305 306 306 308 309 309 309 309 311 312 311 314 317 315 313 311 312 313 314 315 314 314 314 314 313 311 311 312 312 311 312 314 312 312 311 310 310 310 310 311 313 313 311 311 310 311 310 310 311 309 312 313 311 309 310 315 313 307 308 311 312 311 311 313 312 312 313 315 318
311 310 309 309 308 308 308 307 307 307 307 306 306 306 305 305 306 306 306 306 306 307 308 309 310 310 310 310 311 313 316 316 314 313 312 312 314 314 315 314 314 314 314 314 312 311 311 311 311 313 313 312 313 313 311 308 308 310 312 315 315 314 314 311 311 309 311 312 308 310 313 314 313 313 314 310 307 309 310 312 312 312 313 312 312 312 313 315
311 310 309 309 308 307 307 308 309 308 306 307 307 306 306 306 306 306 306 306 307 308 308 310 311 310 310 310 312 316 317 314 313 312 312 313 313 314 314 314 314 314 314 314 312 311 311 311 312 312 311 312 313 311 311 309 309 312 313 315 316 316 315 312 310 309 311 311 308 310 313 315 317 315 313 308 307 310 311 313 313 312 312 311 312 311 312 314
310 309 309 309 309 308 307 308 309 307 306 307 307 306 306 306 306 306 307 307 308 309 309 311 310 309 309 310 313 317 317 313 312 312 312 313 313 313 313 313 314 314 314 314 312 311 311 312 313 312 310 311 311 310 312 312 311 313 313 314 316 314 314 313 310 310 313 310 307 312 313 315 318 316 311 307 307 310 311 313 313 313 312 311 312 311 312 313
309 309 310 310 309 308 308 308 308 308 307 308 307 306 306 306 307 307 307 308 309 310 310 310 310 309 309 309 312 316 316 313 312 312 312 313 313 313 313 313 313 313 313 313 312 311 312 313 313 312 310 308 310 313 315 315 313 313 311 314 316 313 313 314 309 309 313 310 308 313 314 315 318 316 310 306 307 309 311 313 313 313 312 311 311 311 311 312
309 310 310 310 309 309 309 308 309 309 308 308 307 307 307 307 308 308 309 309 310 311 311 310 309 309 309 309 311 313 314 314 313 312 312 313 313 313 313 313 313 313 313 312 312 312 312 313 311 310 311 311 313 316 316 315 314 314 313 313 315 314 314 314 310 307 310 310 310 312 314 316 317 314 310 305 307 309 310 312 313 312 311 311 311 311 311 311
309 309 310 310 309 309 309 308 309 309 308 307 307 307 308 309 310 310 311 311 312 312 311 310 308 308 309 309 310 312 313 314 313 312 313 313 313 313 313 312 311 312 313 312 312 313 313 312 310 310 313 312 314 316 313 311 311 314 314 314 314 314 312 312 312 309 307 310 313 312 313 315 316 315 311 309 308 309 311 312 313 313 312 311 311 311 311 311
309 308 309 309 308 309 309 309 309 309 308 307 308 310 311 312 312 312 312 312 311 310 309 308 307 309 308 307 310 311 312 313 313 312 312 312 312 312 313 311 310 312 313 313 312 313 313 312 313 315 315 313 314 315 311 309 311 312 314 313 313 313 312 313 314 311 309 310 313 313 313 314 315 315 314 313 311 310 311 312 313 313 312 312 311 311 311 311
310 309 309 309 309 310 310 310 309 309 308 309 311 313 312 312 312 312 311 310 309 308 309 309 308 310 310 309 311 312 312 312 312 312 311 311 311 312 312 311 312 313 312 313 313 312 314 314 314 315 315 315 316 315 311 312 313 314 315 314 313 312 312 314 314 310 309 312 314 314 314 315 315 315 315 315 313 310 311 312 312 312 312 312 311 311 311 310
310 310 310 310 310 311 311 310 309 309 309 311 313 312 311 312 311 311 311 310 308 308 310 310 309 309 310 311 312 312 312 312 312 312 311 311 311 312 311 311 314 313 311 315 315 311 312 315 316 315 315 316 316 314 312 312 313 315 316 315 315 315 312 314 314 309 308 312 315 315 315 315 316 315 315 315 314 311 311 311 312 312 312 312 312 312 312 311
310 311 311 310 311 311 311 311 310 310 310 312 313 310 309 311 310 310 310 309 307 306 309 310 309 309 310 311 312 312 312 313 313 312 311 311 311 311 310 310 312 312 312 314 314 310 311 314 315 315 313 312 312 312 312 312 314 315 315 315 316 316 314 314 312 309 308 312 315 315 314 315 315 315 315 315 314 313 313 313 313 313 313 313 313 313 313 312
311 312 311 311 311 312 311 311 310 309 310 312 312 308 308 310 309 308 309 309 308 306 309 310 308 310 310 311 311 311 312 313 313 312 312 310 310 311 310 310 311 312 312 312 313 313 314 314 314 311 308 308 309 310 312 314 314 315 315 315 314 315 314 312 311 310 309 311 315 314 314 314 315 315 315 315 314 314 314 314 314 315 314 314 314 314 313 312
311 312 312 312 311 312 311 312 311 309 310 312 311 307 309 310 308 309 310 311 310 307 310 311 310 311 311 311 312 311 312 312 313 313 311 310 310 311 311 311 311 313 312 312 313 313 312 313 311 307 308 310 310 309 312 314 314 315 316 314 313 317 315 310 311 311 309 311 313 314 315 316 316 316 316 315 315 315 315 314 314 314 314 314 315 314 313 312
312 312 313 312 311 312 311 311 311 309 309 311 311 308 310 311 309 310 312 311 309 308 309 309 309 311 312 311 312 312 312 311 312 313 312 311 310 310 311 311 311 312 312 311 313 313 312 310 306 306 309 312 311 310 312 313 313 316 317 315 315 318 315 311 312 312 311 311 312 314 314 315 318 317 318 316 314 313 314 313 314 314 314 314 313 313 312 312
313 313 313 312 312 312 311 311 311 309 309 311 311 309 311 312 309 309 310 309 309 309 307 307 309 311 311 311 312 312 311 311 310 311 311 310 310 310 309 309 310 311 312 311 311 312 311 307 305 308 309 312 312 311 314 315 313 315 316 316 315 315 315 314 315 314 313 314 314 314 311 313 317 316 317 317 315 315 315 315 315 315 315 314 312 312 312 311
314 314 314 312 312 312 311 312 311 309 309 311 310 310 312 313 310 308 309 309 310 310 308 308 310 310 309 312 313 311 311 311 309 309 311 310 309 309 309 309 309 311 311 310 310 312 311 306 307 311 311 313 314 312 315 316 313 312 315 315 314 315 316 316 316 315 313 313 315 314 313 313 315 315 317 318 317 317 317 318 318 317 316 314 313 312 312 311
313 312 313 313 312 312 311 311 310 309 310 310 309 311 312 313 311 308 309 309 309 312 311 308 309 309 309 311 310 309 310 311 309 309 310 310 309 308 310 310 308 309 309 310 311 311 310 308 309 312 313 314 314 313 315 315 312 314 317 315 312 314 316 316 317 316 315 315 315 316 317 315 315 315 316 317 317 316 317 317 318 319 317 314 314 313 312 311
313 312 312 312 312 313 311 310 310 309 309 309 309 310 313 312 310 308 309 309 310 313 311 308 307 308 309 308 308 308 309 310 312 311 308 308 309 309 310 311 310 311 309 310 312 311 311 313 312 313 314 314 314 315 314 313 313 315 313 312 312 315 316 316 317 317 316 316 316 317 317 314 314 315 314 315 315 315 317 318 318 319 317 314 314 312 310 309
314 313 312 311 312 313 311 310 309 309 309 309 308 310 313 311 309 309 309 310 312 311 309 309 308 309 309 308 308 308 308 310 312 311 308 308 310 309 309 310 310 311 308 309 313 312 310 311 311 312 313 313 314 311 310 314 315 313 310 312 313 315 315 316 317 318 317 315 316 318 316 311 311 315 316 315 316 316 317 318 318 318 316 315 314 311 308 306
315 314 312 311 312 312 311 311 310 308 309 309 309 311 312 310 309 310 310 311 314 312 308 309 309 310 310 309 308 308 309 310 310 309 309 310 310 308 307 308 309 312 311 311 313 312 308 307 310 313 312 311 310 307 308 314 314 311 314 316 316 315 315 316 316 316 316 315 316 318 317 313 311 314 318 316 316 317 318 318 317 317 317 315 313 310 307 305
316 315 313 312 312 312 312 312 310 309 310 310 310 312 311 311 310 310 311 311 313 312 309 309 310 310 310 310 310 309 310 311 310 311 311 310 311 309 308 309 310 312 313 312 313 312 310 310 312 312 309 310 312 311 309 309 310 313 318 318 316 314 315 316 316 317 316 315 315 313 315 316 313 313 317 316 315 315 315 317 317 318 318 316 313 309 306 305
317 316 314 312 312 311 311 312 310 309 310 311 311 311 309 310 310 310 311 309 311 314 312 312 311 310 310 312 312 310 311 312 310 312 313 313 312 311 311 313 312 313 313 313 314 314 314 314 313 310 308 310 315 315 312 310 311 315 318 316 314 313 313 315 317 317 316 315 312 310 312 316 315 314 316 315 315 314 314 315 316 317 317 316 315 310 306 305
318 317 314 312 313 312 311 312 310 309 310 312 312 311 310 311 311 311 310 309 312 314 313 313 311 311 311 311 312 311 312 312 311 311 312 313 314 313 314 314 313 315 313 313 314 314 314 315 313 312 311 310 314 315 314 314 314 316 317 315 313 312 314 315 314 312 313 314 310 308 313 317 316 315 316 316 316 316 315 315 315 316 315 315 314 310 307 306
318 317 314 313 314 314 313 312 310 310 311 312 311 309 312 313 312 312 312 312 314 312 312 313 310 310 311 312 312 311 311 311 311 312 312 313 314 314 314 312 311 313 313 312 313 314 314 314 313 314 314 313 314 316 317 317 315 317 318 315 314 313 313 314 313 311 312 314 311 309 314 317 315 315 316 314 314 314 313 314 315 313 312 312 311 309 307 306
318 317 315 314 314 314 314 312 311 311 312 312 310 309 312 312 312 313 312 313 314 313 311 311 311 311 312 312 312 311 311 312 311 312 313 314 314 314 314 313 311 312 313 312 312 313 314 314 313 314 315 314 314 316 318 317 316 316 315 315 314 314 312 311 311 312 312 313 313 311 313 316 315 315 315 313 313 313 312 311 312 312 312 312 311 310 309 307
316 316 315 313 313 314 314 313 311 311 313 313 309 310 311 311 313 314 313 314 315 313 311 311 312 313 312 312 313 311 311 313 312 312 313 313 314 314 315 315 312 311 311 312 314 313 312 313 313 312 313 312 312 314 316 315 314 314 314 315 313 312 313 313 310 310 310 312 314 314 314 314 313 314 315 314 315 315 313 312 312 313 314 313 314 314 311 308
316 315 315 314 313 314 314 313 312 311 314 315 310 310 312 311 313 314 314 315 313 311 313 313 313 314 313 313 314 313 312 313 313 313 314 313 313 314 314 314 313 311 311 312 314 315 313 313 313 312 313 311 307 311 315 314 314 313 314 316 313 311 313 312 312 313 314 315 315 314 314 313 313 314 316 315 315 314 314 313 314 315 314 314 315 316 314 309
315 315 315 315 314 314 313 313 312 312 314 315 312 311 312 312 315 315 313 313 313 313 315 315 314 315 314 314 315 313 313 314 313 313 314 313 313 315 314 313 314 311 311 312 312 314 313 313 314 310 312 312 309 312 315 313 312 313 313 314 314 315 315 313 313 315 315 315 316 315 314 313 313 315 315 316 317 316 315 315 314 315 314 316 317 316 314 309
314 315 316 316 314 314 313 312 312 312 313 314 312 313 314 315 320 320 313 312 313 314 315 314 315 315 315 315 315 313 312 313 313 313 315 313 314 315 313 313 315 312 310 311 311 312 313 312 315 310 309 312 312 313 314 314 312 311 312 313 313 314 316 315 313 313 314 314 314 315 315 313 314 316 314 315 317 316 316 317 317 316 315 316 317 317 315 310
314 315 316 316 315 314 313 312 312 312 314 313 311 314 318 317 318 317 314 314 315 314 313 315 316 316 316 315 315 313 313 314 314 314 315 314 313 315 312 312 315 313 311 311 311 313 312 310 313 312 309 312 314 314 316 316 314 312 313 314 313 313 313 314 313 312 313 314 313 315 316 314 315 318 316 314 316 316 318 319 320 321 320 317 317 317 316 312
313 315 316 315 315 314 313 313 313 313 314 313 312 315 317 316 316 315 314 316 317 314 312 315 316 316 316 315 314 314 314 314 314 314 314 313 313 315 313 313 316 314 311 311 311 313 313 310 313 314 312 314 316 314 314 316 316 315 315 315 315 314 313 314 315 313 313 314 314 315 317 315 315 318 316 315 317 317 318 319 320 321 320 318 316 314 313 312
313 315 315 314 314 313 313 314 312 310 312 312 312 314 314 314 316 316 314 314 317 317 314 316 318 316 316 315 314 315 314 314 314 314 315 314 313 315 314 313 314 313 311 312 313 314 314 312 313 316 315 314 313 308 306 308 313 314 314 315 315 315 315 315 316 315 314 314 313 313 315 316 316 316 317 317 317 316 315 316 318 319 315 313 313 312 309 308
314 314 313 313 314 313 315 315 310 308 309 310 310 312 312 313 315 315 314 313 315 317 317 318 317 314 315 316 316 315 314 314 315 313 315 316 313 313 314 312 312 312 312 313 313 314 314 312 312 314 315 313 311 308 306 307 311 313 313 314 315 314 315 315 315 315 316 316 315 315 316 318 316 313 314 314 313 313 311 309 314 316 313 311 311 312 310 306
314 313 313 312 313 313 315 315 311 309 309 308 309 311 311 311 313 314 315 315 314 317 319 320 317 314 315 317 315 314 314 316 316 314 316 317 313 312 312 311 311 312 313 314 313 313 313 314 314 314 315 315 314 313 312 311 311 314 314 314 315 316 316 316 314 313 315 318 318 317 318 318 316 312 311 311 311 313 312 309 309 312 313 314 312 312 312 309
313 313 312 312 313 313 315 314 311 310 309 308 309 310 310 310 311 312 315 316 315 316 318 319 317 316 316 316 315 315 315 315 316 316 315 316 315 312 310 311 311 311 315 318 316 313 315 317 314 314 315 316 316 317 317 315 313 314 315 315 315 316 316 316 315 314 316 318 318 317 317 317 316 315 313 311 312 313 312 312 311 310 313 314 312 311 313 311
312 313 312 312 312 313 315 314 312 311 309 309 310 309 309 311 311 311 313 315 315 315 317 318 317 317 318 317 315 316 316 315 318 319 315 315 317 314 311 312 312 312 317 321 316 314 319 319 315 315 316 316 316 319 320 318 316 315 317 316 315 316 317 316 316 317 317 317 317 318 318 317 317 317 315 313 315 317 316 315 314 314 316 316 312 310 309 307
309 311 312 313 313 312 313 313 313 312 310 310 310 310 310 311 311 311 312 313 315 315 316 318 318 319 320 317 316 317 317 316 319 319 317 316 317 314 311 311 312 313 317 319 316 315 318 318 316 316 317 316 316 319 320 319 319 318 318 318 316 316 317 318 317 318 318 318 317 317 319 319 317 316 317 316 317 319 319 318 318 318 319 319 317 313 309 308
308 309 310 311 312 313 313 312 313 313 311 310 310 310 310 311 311 312 312 312 314 316 316 317 317 318 320 319 318 319 318 317 317 317 317 319 317 314 312 312 312 312 315 316 314 315 316 316 317 318 317 317 316 319 320 319 318 318 317 318 317 316 317 318 317 318 318 318 318 318 320 320 318 315 316 316 317 317 316 317 318 317 316 317 318 316 315 313
307 308 308 309 310 313 313 313 313 313 312 311 310 310 310 311 311 311 312 312 313 314 315 316 316 316 318 319 319 320 319 318 317 317 318 319 318 316 315 315 313 312 313 315 315 316 316 315 318 319 318 317 316 318 320 318 316 316 316 316 317 317 317 317 316 317 317 318 318 318 320 320 318 316 315 315 316 316 315 315 316 315 316 316 317 317 317 315
306 307 308 309 309 311 312 312 312 313 313 312 311 311 310 311 311 311 312 313 313 313 314 315 315 315 316 317 318 319 319 318 318 319 319 318 317 317 316 315 316 314 312 314 315 315 315 316 319 319 317 318 317 317 318 318 316 316 316 316 317 316 317 317 316 317 317 318 318 318 319 319 316 315 315 315 316 315 315 315 314 314 316 316 315 316 316 314
304 304 306 308 309 310 312 312 312 312 313 312 312 312 311 311 312 312 312 313 313 313 314 315 315 316 315 315 316 317 317 318 319 319 319 318 316 317 316 315 318 317 313 312 315 315 315 316 318 317 316 318 319 319 317 317 316 317 317 317 316 315 315 315 316 316 316 317 318 318 318 318 316 315 315 316 316 315 315 315 314 315 316 316 315 315 315 314
303 303 304 305 306 307 310 311 312 313 313 311 311 312 312 312 312 312 312 313 313 313 314 314 314 316 316 315 315 315 316 316 317 318 319 319 318 318 318 316 318 318 314 313 315 316 316 316 316 317 317 318 320 320 317 316 317 318 317 316 315 315 314 315 315 315 315 316 317 318 317 316 316 317 316 316 316 315 315 315 315 316 316 316 316 315 314 314
Wind_Speed
10 10 9 6 5 7 7 8 9 9 9 9 9 9 8 7 7 6 5 5 5 6 5 5 3 3 1 1 1 2 4 6 6 6 4 5 6 6 6 6 5 5 3 3 4 5 3 3 4 4 3 3 2 1 1 2 2 2 2 2 2 3 3 5 8 5 0 4 8 7 7 6 5 5 2 2 3 1 2 4 2 2 4 2 2 3 5 9
12 12 10 8 6 6 8 8 9 9 8 8 9 9 8 8 7 6 6 5 6 6 6 5 4 3 1 1 1 2 5 6 6 6 5 6 6 6 6 6 5 5 3 2 3 5 3 3 3 3 2 1 1 1 1 2 2 0 1 2 2 2 2 1 5 5 1 2 8 7 4 3 3 5 4 4 4 3 5 6 4 5 6 5 4 4 8 11
14 12 10 8 8 8 8 9 8 8 8 8 8 8 8 7 7 6 6 6 6 6 6 5 4 3 2 1 1 2 5 6 6 4 4 7 6 6 6 5 4 4 3 2 2 3 3 5 5 3 1 2 2 1 1 2 2 0 1 3 1 2 2 1 2 4 1 1 7 8 3 2 1 3 4 4 3 4 8 7 5 8 9 8 8 8 10 11
13 10 9 7 7 8 8 8 8 8 8 8 9 8 8 7 6 6 6 6 6 6 6 5 5 3 2 2 1 3 6 5 3 2 4 6 5 6 6 5 4 3 3 2 2 4 5 6 5 2 1 2 2 1 1 3 1 1 1 1 3 1 2 3 1 2 1 2 4 7 4 3 2 2 3 4 4 6 9 8 7 8 6 8 10 10 11 12
14 9 8 7 6 6 7 8 9 8 9 9 9 8 8 7 6 6 6 6 6 6 6 5 5 3 3 2 2 3 4 4 3 3 5 6 5 5 6 5 4 3 3 2 3 5 6 5 3 2 2 2 1 1 2 3 2 2 1 2 3 1 2 3 0 1 0 1 4 6 6 4 4 2 4 6 8 5 2 2 5 5 0 5 10 12 11 12
16 11 9 7 6 6 6 8 9 9 9 9 9 9 8 7 7 7 6 6 6 6 6 6 5 4 3 2 2 2 2 1 2 4 5 5 5 5 5 5 4 3 3 2 4 4 4 2 1 1 2 2 1 2 2 2 2 1 1 1 1 2 2 3 1 2 1 2 6 5 4 3 3 4 2 6 12 2 4 2 1 2 2 3 9 12 11 12
17 13 10 8 7 7 6 7 9 9 10 10 9 9 8 8 7 7 7 7 7 6 6 6 6 5 4 3 3 2 0 1 1 5 7 5 4 5 5 5 4 4 2 3 3 3 3 2 3 2 2 3 1 3 2 1 1 0 3 3 0 2 2 2 1 2 1 2 3 2 2 3 4 4 2 6 14 4 3 1 1 1 1 3 7 11 11 12
16 15 12 10 8 7 7 7 8 10 10 10 10 9 8 8 8 8 8 8 7 7 7 7 7 6 5 5 3 2 1 2 2 7 7 5 4 4 3 4 4 2 3 5 3 3 2 1 4 2 2 3 2 3 1 1 2 2 4 4 2 1 2 2 2 2 0 1 2 2 3 2 1 1 2 9 11 4 2 1 1 1 3 5 8 10 10 11
15 15 13 10 9 8 7 6 8 10 10 10 10 9 9 9 9 9 9 9 8 8 8 8 7 6 6 4 2 3 2 1 4 9 8 6 5 5 4 4 4 4 6 7 4 3 2 1 3 3 3 4 2 3 1 1 2 3 4 4 3 3 2 2 2 2 1 1 1 4 3 1 1 1 6 10 3 2 2 2 2 3 5 6 7 9 10 10
15 14 14 11 9 9 7 7 9 10 10 10 9 9 9 9 9 9 9 9 9 9 9 8 8 8 7 5 2 4 2 1 6 9 8 6 5 4 5 6 6 7 9 9 7 4 1 3 4 3 6 5 2 2 3 1 2 3 4 5 5 3 2 1 2 3 0 1 1 4 2 1 2 2 6 3 2 2 3 3 2 4 6 6 6 7 8 9
17 15 14 12 10 9 8 8 10 10 10 10 9 9 8 9 9 9 9 9 9 9 9 9 9 8 6 5 3 3 2 3 8 10 8 7 5 6 7 7 7 9 10 9 8 8 7 9 8 3 2 3 3 4 3 1 2 2 3 5 5 3 4 2 2 2 1 2 0 3 3 1 4 5 6 3 3 1 3 4 3 5 5 5 6 6 6 8
18 15 13 12 12 10 8 8 8 9 9 9 9 9 8 9 10 10 9 9 9 9 10 10 9 8 5 3 1 3 4 4 8 10 9 7 7 8 9 8 8 8 9 9 7 8 11 9 7 4 2 3 4 3 4 2 0 2 1 3 4 2 4 3 2 1 2 1 1 1 5 5 7 10 4 5 2 1 2 5 4 5 5 4 5 5 6 8
18 17 14 12 12 10 9 8 7 8 9 9 8 8 9 9 9 10 10 10 10 9 10 10 9 7 4 2 3 5 6 6 8 9 10 9 10 11 11 10 10 10 11 12 8 8 8 6 6 7 3 2 3 1 5 3 1 2 0 0 2 3 3 2 2 0 2 1 1 2 5 4 8 10 3 5 2 2 4 7 6 5 4 4 5 5 6 8
18 17 15 13 12 11 10 9 8 9 10 9 8 8 9 9 9 10 10 10 10 10 10 9 9 6 3 2 3 5 6 7 10 11 12 12 13 14 12 11 12 12 13 15 13 10 9 9 11 9 3 3 3 2 4 3 1 1 0 0 1 2 2 3 2 1 3 2 1 3 5 4 4 4 4 3 2 4 7 8 7 6 5 5 5 6 7 8
17 16 14 14 13 11 10 9 8 8 9 9 9 8 8 9 9 9 10 10 10 9 9 8 8 5 2 2 2 5 6 7 10 11 11 13 12 11 11 12 14 14 15 16 15 12 10 9 7 5 3 2 2 4 3 2 2 2 1 2 1 2 2 3 2 1 1 2 1 4 5 6 6 2 4 2 2 4 8 8 6 6 6 7 6 7 7 7
15 16 15 14 13 11 10 10 8 7 9 9 9 9 9 9 9 9 10 9 9 9 8 7 7 5 3 2 3 4 5 5 8 10 11 11 9 10 13 13 13 13 13 13 12 11 10 8 4 2 2 1 3 3 3 2 1 1 2 2 2 2 1 1 2 2 2 1 3 6 4 4 3 0 3 1 3 4 6 8 7 7 7 8 7 7 7 7
14 17 18 16 14 12 10 8 7 7 9 10 10 10 10 9 10 10 10 9 9 7 5 4 5 3 1 2 2 3 4 5 8 9 10 9 9 14 14 9 8 9 10 9 7 6 7 6 1 1 2 1 1 2 3 2 3 2 1 1 1 2 1 1 2 2 1 2 5 6 7 9 7 3 3 4 5 4 6 9 9 7 7 8 8 7 8 8
13 17 18 17 14 11 10 8 7 7 9 10 11 12 12 11 11 10 11 12 10 7 3 2 3 3 2 3 3 3 5 7 9 8 8 10 12 14 10 7 6 6 6 5 4 4 3 2 0 2 3 1 2 4 4 1 2 3 3 2 1 2 3 3 1 2 0 3 5 6 8 14 14 10 11 6 6 6 9 10 9 8 8 8 8 8 9 9
13 14 14 14 14 11 9 8 7 7 9 11 13 15 15 13 10 8 8 8 6 4 2 3 4 3 2 4 3 5 8 9 9 7 8 11 11 10 10 8 6 4 3 2 2 3 1 1 2 3 3 4 6 5 2 1 1 3 3 2 1 3 3 2 0 2 1 3 7 9 10 14 15 12 13 9 5 6 11 10 9 9 9 9 9 8 9 10
13 13 12 13 14 11 9 8 7 8 11 13 17 16 11 9 6 4 4 3 2 1 1 1 2 2 2 3 6 10 11 8 4 4 9 11 10 11 8 4 3 3 1 1 2 2 1 2 4 4 3 5 6 3 4 4 3 4 3 1 1 3 3 1 2 2 1 4 7 9 10 15 16 14 14 11 5 7 11 12 12 11 10 10 11 10 10 11
15 15 13 12 13 11 9 9 6 9 13 16 18 9 3 7 4 4 5 2 0 2 3 2 3 3 3 5 10 11 7 4 3 3 8 9 8 8 2 1 4 3 1 0 2 1 2 4 5 2 1 3 5 5 6 5 3 3 3 1 1 3 3 1 2 1 1 3 6 5 8 14 16 15 15 13 10 12 14 13 14 14 12 11 11 12 10 8
16 15 14 13 12 10 9 8 6 10 13 16 14 3 2 4 3 7 7 2 1 1 2 2 2 3 4 4 9 6 2 4 3 2 5 6 3 4 2 2 5 4 2 2 2 2 3 5 2 4 5 7 6 4 4 5 3 3 2 1 2 2 3 0 2 1 1 3 5 4 7 13 16 16 17 17 15 14 13 13 14 14 13 13 12 11 9 8
16 15 15 13 11 10 8 7 7 9 13 14 11 4 3 7 6 8 6 2 3 1 1 2 1 4 3 2 6 4 2 4 5 5 6 6 2 1 4 5 4 4 4 5 5 4 4 3 2 6 6 8 6 2 4 5 3 2 2 2 2 0 1 2 1 2 2 1 4 7 9 12 14 15 16 17 14 13 12 13 15 14 15 16 11 6 7 10
17 15 15 14 12 11 8 7 6 8 13 15 13 8 7 9 7 6 3 2 2 1 1 1 0 3 4 3 7 6 1 1 3 6 8 8 5 2 4 4 4 5 5 6 5 5 2 2 3 5 3 5 6 5 6 5 3 3 4 4 2 1 2 3 2 2 2 2 2 7 10 8 6 7 8 6 5 9 10 10 14 15 15 14 10 8 9 10
19 16 15 15 13 11 10 6 4 8 12 12 12 10 9 9 6 4 3 1 2 1 0 2 1 4 5 5 7 5 2 1 0 2 7 6 4 4 3 2 2 6 6 6 3 4 1 3 5 7 3 3 6 5 6 6 4 3 5 7 4 1 2 2 3 4 3 2 0 4 7 4 2 3 5 2 2 6 5 6 13 14 10 8 9 11 11 9
19 18 17 16 14 14 11 4 6 10 9 9 13 12 10 9 5 5 3 2 2 2 2 4 3 6 8 5 5 4 2 3 1 3 6 4 2 3 3 2 1 2 6 6 2 2 1 2 3 6 6 5 4 4 5 5 4 2 2 4 4 2 1 2 1 2 3 3 0 2 5 6 3 7 8 5 3 7 6 8 14 11 5 5 7 9 8 8
20 19 19 17 17 18 11 3 8 11 6 8 15 14 11 9 6 4 2 1 3 3 4 2 1 5 8 4 4 5 3 3 4 4 3 2 1 1 2 5 2 1 4 4 2 1 4 4 3 4 6 5 5 3 5 8 6 1 1 1 4 5 3 3 2 3 3 4 2 1 1 6 8 4 3 2 2 7 11 13 15 8 3 4 6 6 6 7
22 21 20 19 20 20 11 4 10 12 5 8 17 17 12 9 6 2 3 3 2 3 4 1 1 4 5 2 1 2 0 1 4 3 3 3 1 1 2 7 5 4 4 4 5 1 3 6 7 7 5 4 4 0 3 9 5 1 1 2 4 3 3 3 2 1 1 4 3 3 3 5 9 2 3 2 3 7 12 14 14 5 1 4 5 3 3 4
26 24 21 19 20 21 13 5 10 13 8 10 18 19 13 8 4 2 1 4 2 3 2 3 4 3 3 3 3 3 2 2 1 1 1 2 3 2 1 3 3 6 4 1 2 1 2 2 4 6 5 4 3 4 1 5 2 3 5 5 6 5 4 3 0 1 1 4 4 6 7 4 10 4 5 2 4 8 11 11 8 3 2 5 4 1 1 2
28 26 24 21 21 23 16 10 13 14 8 11 19 19 12 5 3 4 3 3 2 2 2 2 3 3 8 9 2 1 2 2 1 3 2 1 3 4 1 1 3 5 3 2 2 2 1 1 1 1 2 2 5 6 3 2 4 7 7 5 6 4 3 2 1 1 2 5 2 5 8 4 8 4 6 5 3 4 6 6 4 2 2 2 1 0 1 2
27 28 26 24 23 23 15 9 15 15 8 11 18 15 9 2 1 6 4 1 1 2 3 3 2 5 13 12 5 2 2 2 2 5 5 3 2 3 2 3 3 3 1 2 1 1 0 1 1 0 1 3 5 6 5 3 3 4 3 4 3 1 1 1 1 1 4 5 0 1 1 3 7 5 3 1 3 3 5 5 5 4 2 0 1 1 1 2
29 30 27 24 24 25 17 7 12 15 9 13 17 9 5 3 1 6 4 2 2 4 5 3 2 7 11 7 4 5 4 2 3 5 5 4 5 6 6 6 6 3 4 6 3 1 1 2 2 2 0 2 5 6 5 2 1 2 3 5 4 2 2 3 2 2 4 3 1 2 1 4 10 8 5 9 11 9 8 7 7 6 4 2 2 2 1 2
31 31 29 25 23 25 21 9 8 15 14 18 13 2 2 5 5 8 7 4 1 1 3 4 3 6 9 7 4 4 2 1 5 4 1 2 5 6 4 2 3 1 2 5 4 3 3 1 3 4 2 4 7 6 4 4 5 6 7 7 6 4 3 5 2 1 4 1 2 1 2 5 9 8 9 16 17 11 7 8 8 7 6 4 2 2 2 2
32 33 31 28 23 20 18 11 9 16 19 16 8 2 4 6 7 11 10 3 2 2 3 4 7 7 6 4 3 5 2 1 5 4 3 4 4 6 5 4 5 1 2 3 4 5 6 3 5 7 3 5 9 4 1 5 7 5 2 2 5 4 4 4 2 2 3 1 1 0 2 5 5 2 3 8 8 6 5 5 5 6 7 5 4 4 4 4
29 36 32 29 26 21 18 12 10 17 19 10 5 6 8 8 8 10 9 4 2 2 3 3 8 8 4 1 1 3 2 1 3 3 4 5 5 6 7 8 10 6 4 4 3 3 5 4 1 2 0 6 8 1 3 4 5 2 1 0 4 3 1 0 1 0 2 2 2 3 4 6 4 5 6 7 6 5 4 4 4 8 9 5 6 8 7 6
22 32 29 28 29 25 22 15 12 20 16 6 6 7 8 10 6 5 6 5 5 7 8 5 4 4 3 1 1 4 1 1 5 4 3 3 3 5 5 5 10 11 8 6 3 2 3 2 2 2 0 2 2 0 1 0 2 3 3 4 3 2 2 2 0 2 2 5 4 3 6 6 5 9 9 8 10 8 5 4 6 9 8 5 7 9 7 6
16 21 19 21 27 27 26 20 16 20 11 3 9 9 7 8 3 3 5 5 7 11 10 6 3 4 6 3 4 7 4 2 5 5 4 3 3 6 7 3 7 14 12 5 2 2 2 1 2 1 2 1 1 0 2 3 1 3 4 5 3 2 1 1 3 1 2 6 4 2 7 8 5 6 1 2 6 9 9 9 9 9 6 6 9 8 4 5
13 13 9 16 27 27 26 23 19 15 4 1 10 11 7 6 1 4 6 6 8 9 6 5 5 4 7 6 5 7 6 5 6 5 4 4 4 7 10 5 6 14 13 3 0 2 2 3 0 1 1 1 1 3 3 2 2 1 1 2 2 2 3 3 3 3 4 4 4 3 5 8 9 7 1 2 4 7 10 11 10 11 10 8 10 6 3 5
12 7 3 14 26 26 27 25 18 10 2 4 10 10 5 3 0 2 4 7 9 8 7 8 5 2 5 6 4 6 7 6 8 7 4 5 5 5 11 9 5 11 13 8 3 1 2 5 2 1 2 1 2 5 6 5 2 2 0 2 1 2 2 3 3 2 3 3 3 3 4 8 8 5 5 8 9 9 9 8 8 12 12 10 9 4 4 5
8 3 1 11 24 28 29 23 14 7 5 7 10 7 2 2 1 1 1 3 5 4 6 8 6 4 4 3 3 5 6 5 6 6 4 6 6 4 8 9 4 5 10 10 5 2 3 4 3 2 1 2 4 5 7 8 7 5 6 6 4 1 0 1 1 0 2 3 3 3 6 9 4 5 7 9 9 10 9 7 8 9 10 10 7 3 4 5
3 2 2 11 24 30 26 15 6 7 7 8 10 5 1 1 1 1 2 1 1 1 1 4 6 6 5 5 3 4 5 4 5 6 4 6 8 5 6 9 8 8 8 7 6 5 4 3 3 3 3 5 3 0 2 3 3 5 6 8 9 7 4 4 4 2 1 3 3 2 7 10 2 4 5 6 6 7 7 7 7 7 7 5 1 0 2 4
3 3 3 16 30 30 19 5 2 4 5 7 6 2 1 1 2 1 0 0 1 1 1 1 3 4 5 6 5 5 7 5 6 7 5 7 10 7 4 6 10 13 10 6 5 3 3 2 3 3 3 3 0 2 1 3 1 0 2 3 6 6 7 7 6 4 3 3 2 0 6 9 2 2 2 2 2 2 2 4 6 6 6 3 0 2 2 4
5 3 2 18 35 29 12 5 4 4 3 3 2 2 2 2 1 1 2 3 2 2 2 2 2 3 4 4 4 8 9 6 8 10 7 6 8 5 4 7 11 12 9 4 3 3 3 2 4 3 1 1 2 1 1 0 0 2 2 2 6 9 9 6 3 3 4 5 4 3 6 8 2 1 1 1 1 1 2 4 6 6 3 2 4 3 3 3
4 2 2 16 35 26 9 5 5 5 4 1 2 5 1 2 2 2 2 3 3 2 3 2 2 2 3 3 4 9 11 7 9 11 7 4 4 1 4 10 13 11 7 5 6 7 5 4 5 5 3 3 3 3 3 2 3 4 4 6 9 12 8 2 1 1 4 10 10 6 9 9 0 2 1 1 2 3 4 4 4 6 4 3 4 2 3 4
2 2 1 10 25 19 7 5 5 5 6 4 4 8 6 3 3 2 1 0 1 2 2 2 1 2 2 3 4 6 10 10 9 9 6 4 2 1 2 10 14 11 5 2 5 8 7 5 6 7 7 8 7 6 4 5 5 4 6 8 10 13 12 6 3 5 8 11 10 8 12 11 1 3 3 1 1 4 4 3 3 5 6 4 3 2 2 3
1 3 1 3 8 7 4 5 7 5 6 5 4 6 9 8 4 2 3 2 0 1 1 1 2 2 2 4 5 5 10 12 6 4 6 6 3 0 2 7 12 11 5 5 7 7 3 2 7 11 11 11 10 6 3 8 9 8 9 12 13 15 17 11 7 10 8 3 6 13 18 16 11 5 6 2 2 4 4 3 3 5 6 5 4 3 3 3
0 2 3 3 2 3 2 4 8 8 7 8 6 4 9 11 6 2 5 5 3 3 1 1 1 4 4 7 8 6 7 8 5 3 5 5 2 1 1 2 6 7 4 5 8 6 2 3 9 14 15 16 15 7 7 11 11 12 13 14 15 16 17 15 14 15 8 3 9 19 15 15 22 13 7 5 4 3 4 4 5 6 5 4 3 3 4 5
1 1 1 1 1 4 5 6 10 10 10 10 6 4 8 11 8 5 5 5 2 2 3 1 3 7 7 6 7 5 5 6 6 6 5 3 2 2 2 0 3 3 3 4 6 5 3 6 10 13 15 19 18 7 9 10 7 7 12 14 16 17 19 20 20 19 12 8 15 19 11 13 22 15 6 6 6 6 7 6 5 5 5 5 4 4 6 8
1 1 1 2 1 3 5 8 12 12 12 12 7 7 9 11 12 9 5 4 3 4 7 6 10 13 10 5 4 5 6 7 8 8 5 4 4 5 4 2 3 2 3 5 4 2 4 7 10 12 13 19 19 8 8 9 5 3 9 12 15 19 22 22 20 18 16 14 18 17 10 15 18 9 3 5 6 8 8 7 6 7 7 8 7 7 8 9
1 1 1 1 1 1 1 5 10 8 9 11 8 8 10 12 14 11 6 7 7 6 9 13 15 14 13 10 6 6 7 8 9 8 5 6 5 4 3 3 2 2 3 4 2 1 5 6 6 7 7 15 17 8 7 9 7 6 8 9 13 17 18 17 13 12 14 16 17 12 12 18 13 2 2 5 4 6 8 9 12 12 11 10 9 10 9 9
2 1 1 0 1 2 1 3 8 7 6 8 9 8 11 14 14 10 6 7 9 8 11 17 18 11 9 11 10 12 12 9 6 4 4 4 4 2 2 2 3 4 4 4 2 1 4 3 2 4 6 13 11 7 7 6 4 6 10 14 19 16 12 12 12 13 15 14 13 9 12 17 5 5 3 5 4 8 12 13 14 13 12 11 11 11 10 9
4 2 2 1 1 1 2 2 6 7 6 8 9 8 10 12 11 10 5 5 10 13 12 15 14 7 6 12 15 18 17 12 7 3 4 3 3 3 2 2 4 5 6 5 2 1 3 3 3 4 7 11 6 8 9 6 2 7 15 20 21 14 9 10 14 16 15 13 10 10 14 16 5 2 4 6 7 12 14 13 14 14 14 14 12 11 10 10
Wind_Direction
198 196 195 191 190 194 197 192 190 191 190 187 187 187 189 191 191 191 191 192 190 190 193 189 189 183 169 116 85 70 128 141 137 125 118 107 97 85 64 57 45 34 33 51 141 167 138 109 119 124 113 74 11 338 109 26 8 244 197 197 206 174 178 178 176 172 157 164 157 160 185 195 166 161 165 176 201 184 179 205 202 204 217 203 107 123 144 155
199 199 200 210 209 196 197 196 196 199 195 190 192 192 193 193 192 193 191 194 193 193 193 191 192 187 190 134 101 106 134 150 135 103 105 120 99 76 58 51 44 41 45 57 134 179 178 135 122 122 106 82 354 343 179 350 341 260 126 217 223 146 123 164 161 148 335 170 151 149 176 220 182 153 162 205 191 175 224 209 197 226 212 180 164 164 154 160
207 208 207 215 222 211 198 195 201 202 196 195 198 199 199 196 194 195 195 196 195 193 192 192 193 192 201 160 139 132 139 145 131 103 117 123 97 72 53 44 44 40 52 57 110 156 165 139 134 136 94 74 25 2 139 9 334 35 206 223 187 78 80 79 145 130 338 309 150 146 146 236 160 128 165 210 196 188 227 221 202 227 219 184 162 162 162 167
208 212 205 198 211 211 199 198 203 200 198 201 201 203 203 199 199 200 199 199 196 195 192 193 192 192 196 185 187 142 147 154 140 153 143 125 99 70 47 44 44 31 52 68 99 113 121 120 110 79 98 106 52 353 67 18 319 113 268 262 75 41 105 107 155 107 355 311 151 135 143 186 120 132 195 195 211 219 229 229 230 242 222 174 161 163 169 174
207 213 207 192 200 203 198 204 204 201 202 206 206 205 204 201 205 204 204 203 199 194 190 192 192 192 194 194 199 153 169 178 145 164 154 129 105 66 48 44 36 31 51 83 108 116 116 104 98 68 71 109 88 148 79 17 333 99 9 359 58 298 97 103 220 126 110 2 137 141 159 168 119 179 214 206 228 238 214 211 239 257 196 149 165 165 170 181
216 220 217 203 206 200 200 207 204 206 207 208 208 206 205 203 205 205 205 204 199 194 190 190 188 189 188 174 166 169 208 204 131 166 158 131 104 61 51 43 38 54 52 102 120 124 117 86 124 106 74 86 51 85 78 14 301 104 98 97 58 332 63 101 131 149 214 165 155 158 152 129 152 211 194 220 239 245 76 75 312 296 39 124 159 165 175 186
221 220 217 209 209 204 206 208 204 209 208 208 208 205 205 202 206 205 202 202 199 193 187 187 185 185 184 158 121 119 177 32 126 170 155 136 105 62 56 41 36 57 68 122 122 117 123 108 123 125 97 100 78 86 70 357 265 126 121 137 165 10 43 63 109 148 240 185 138 118 145 155 200 222 80 234 242 227 111 97 339 300 156 160 164 174 185 188
219 215 216 213 210 207 207 207 209 212 209 208 207 205 202 202 206 203 200 199 195 191 185 183 181 179 180 175 141 111 111 63 167 165 149 138 107 64 65 46 37 80 102 97 102 142 149 101 126 182 110 89 130 110 79 162 90 71 119 143 155 72 56 75 124 140 99 74 91 151 181 177 222 310 291 250 244 210 149 121 159 190 167 187 190 188 187 188
218 215 219 219 211 207 207 209 210 210 209 210 207 206 203 201 204 202 200 196 191 187 179 177 177 176 172 162 146 165 143 55 167 158 145 131 97 72 86 75 71 110 99 79 82 145 179 165 151 199 116 93 140 109 307 232 85 66 114 136 127 96 74 102 136 110 69 85 143 210 186 119 93 345 265 253 256 100 143 147 155 178 182 194 197 196 191 191
223 219 219 220 215 209 209 212 210 206 206 207 204 208 205 199 200 200 198 191 189 184 175 176 172 174 173 157 160 182 146 95 161 157 148 131 101 94 99 88 89 100 89 73 69 65 103 159 141 151 112 98 117 81 326 308 86 87 114 115 96 98 92 87 132 96 41 120 184 246 226 109 127 242 250 235 55 84 179 174 173 201 202 200 197 199 199 198
230 225 220 219 218 211 211 216 211 203 200 201 202 205 201 197 198 197 195 188 184 180 173 173 171 171 171 176 194 176 125 128 154 154 147 130 118 119 102 94 96 97 92 75 67 71 93 122 126 129 111 121 122 82 44 49 99 86 136 127 88 102 118 91 121 87 302 155 57 283 269 225 131 226 243 100 82 202 212 201 194 216 212 202 202 200 202 207
233 226 220 217 215 214 214 212 207 202 200 199 197 196 192 193 194 191 189 183 180 178 172 169 170 163 148 159 175 135 135 134 145 152 148 133 124 114 96 96 94 92 101 91 79 91 105 122 125 85 49 162 146 97 105 119 150 86 179 150 101 153 141 97 106 52 285 159 50 295 267 240 198 225 220 98 121 135 241 234 215 221 220 207 208 208 209 210
230 224 219 214 215 216 210 201 204 206 197 190 188 190 190 189 190 188 182 178 178 173 169 170 169 166 161 148 107 126 138 132 140 147 144 136 120 105 97 98 94 92 101 102 102 103 105 112 103 88 61 122 119 117 131 115 292 125 75 352 130 197 175 80 72 269 222 145 37 254 267 243 209 226 165 96 176 174 235 238 225 221 218 216 212 216 218 209
220 216 213 212 214 216 211 201 203 200 188 184 184 184 185 184 183 182 176 173 173 169 167 170 169 172 181 131 120 142 140 133 141 142 142 138 119 104 102 102 98 95 95 96 99 97 98 97 95 100 61 30 102 152 128 91 355 104 162 230 159 222 159 93 50 272 201 139 41 236 254 262 239 220 106 80 198 208 247 240 225 219 215 224 218 221 225 214
211 205 205 212 212 213 215 203 199 199 185 175 172 174 177 177 175 171 170 168 165 166 165 164 167 166 158 122 129 154 148 145 152 151 149 142 125 110 107 108 102 95 94 92 92 88 86 87 84 93 68 12 160 155 118 88 57 50 237 181 139 251 159 103 68 331 241 91 165 227 245 265 269 261 80 51 175 202 251 249 234 226 224 228 222 225 228 219
211 202 201 210 209 211 213 203 201 202 181 165 162 166 166 163 161 158 159 158 157 160 157 160 170 174 174 145 128 152 159 163 167 164 157 149 137 128 120 111 99 93 94 89 87 79 63 68 61 29 78 175 189 146 127 140 135 64 281 196 153 230 232 115 105 37 343 85 208 233 261 274 266 42 81 99 174 195 249 259 249 234 233 233 230 229 225 223
214 206 206 211 212 209 206 199 196 190 168 158 154 152 150 146 145 145 144 144 142 143 143 156 170 178 174 124 142 175 167 167 167 162 161 159 147 138 127 104 92 93 94 84 80 64 38 53 94 285 72 114 173 160 171 198 204 172 267 239 202 227 244 251 132 91 336 243 222 224 246 259 256 246 229 189 175 208 248 259 257 240 234 233 229 229 226 225
208 203 208 211 207 201 202 197 187 177 158 152 148 139 133 129 127 129 133 132 117 105 112 141 167 192 202 168 173 156 134 146 151 148 153 150 145 141 126 105 111 106 99 81 48 29 17 32 245 151 114 138 172 199 206 211 216 180 189 204 188 221 229 265 229 103 255 237 233 224 238 258 260 257 258 234 177 220 254 258 262 253 243 241 231 228 226 222
195 193 197 200 196 193 201 197 188 175 155 148 139 126 116 109 108 118 133 139 128 116 147 173 173 182 172 150 126 108 119 132 138 135 136 138 139 128 103 99 111 100 126 162 50 27 356 106 146 175 176 189 187 207 213 94 109 142 163 189 170 232 237 237 82 47 313 249 245 240 247 263 265 261 264 256 183 219 257 259 260 254 247 246 236 228 222 223
191 186 178 183 188 187 191 190 189 172 155 148 138 125 118 122 117 131 164 202 201 66 44 151 145 111 85 106 124 123 117 110 111 127 138 141 137 118 83 60 98 88 113 190 95 54 298 185 190 212 199 186 178 146 90 91 92 110 124 158 188 258 267 139 99 51 346 265 255 243 254 268 270 268 266 264 234 238 254 252 252 246 242 242 238 234 224 225
188 181 173 174 175 177 183 186 188 171 160 156 153 143 147 162 151 153 172 221 343 16 13 48 68 81 87 119 143 141 119 86 65 126 148 147 148 145 110 358 156 148 49 37 103 104 233 219 213 217 73 113 131 117 107 106 96 114 152 191 205 244 264 89 83 56 117 259 262 249 261 265 266 268 267 261 248 248 249 246 251 248 242 241 238 238 230 221
188 181 176 173 170 173 179 181 183 172 167 166 170 199 262 189 157 146 160 172 158 10 23 89 87 80 70 125 158 165 136 114 114 171 170 153 167 183 154 143 179 170 105 144 152 136 204 227 192 104 98 94 93 112 121 112 114 127 142 191 231 245 271 276 86 72 145 239 274 290 281 271 266 264 261 256 247 247 245 242 253 256 251 248 239 235 230 219
190 189 183 176 174 175 172 180 183 174 173 176 190 229 190 166 139 139 155 140 146 148 112 174 148 120 103 156 183 187 159 139 156 191 192 168 158 190 152 152 161 133 145 193 189 177 201 238 119 121 133 116 99 126 133 119 141 172 162 189 230 28 289 259 102 106 157 218 297 299 285 271 264 258 254 255 253 255 252 245 252 254 252 253 251 245 234 228
188 190 188 180 176 175 176 183 184 182 185 190 205 211 169 156 145 142 135 70 143 148 178 227 264 160 148 148 179 183 160 111 159 175 185 178 150 152 164 139 127 143 181 194 191 209 201 59 109 134 136 125 126 156 168 170 188 206 211 215 221 166 218 261 352 321 204 158 303 298 286 263 251 258 257 254 255 261 258 250 253 250 247 252 262 267 247 234
189 188 188 183 178 178 182 186 197 196 191 198 211 200 174 172 169 161 129 58 190 133 269 220 199 189 162 127 160 166 117 140 35 142 173 179 143 137 147 104 169 185 175 151 167 234 209 101 144 143 117 124 140 168 192 199 205 212 222 223 226 189 190 223 349 323 271 205 86 329 304 276 169 230 251 244 239 259 247 240 253 249 241 241 250 256 244 228
190 191 188 183 181 177 175 196 215 194 183 204 208 190 183 187 172 167 128 41 227 167 143 176 167 176 161 135 148 142 149 185 35 60 145 161 109 126 148 132 319 192 153 139 160 247 148 119 154 148 148 149 158 195 199 199 216 218 218 222 209 150 146 189 221 285 287 288 339 17 308 294 263 219 228 241 261 274 269 255 258 249 224 223 234 245 238 221
191 193 189 184 184 178 170 183 188 174 169 210 200 187 188 186 163 171 156 350 252 169 129 165 235 167 157 154 168 159 189 165 106 88 107 106 90 69 172 164 153 162 150 146 193 207 137 144 154 143 146 155 179 208 186 186 204 211 66 158 167 167 189 181 183 232 290 322 303 145 239 285 282 238 214 249 255 273 270 262 264 256 182 226 237 236 233 222
193 189 185 186 188 186 184 168 166 173 193 193 186 186 186 180 167 168 183 210 237 124 125 160 118 124 132 125 101 114 15 91 130 142 29 32 82 17 207 184 177 159 152 188 209 188 125 169 177 162 158 179 187 308 171 181 192 7 64 117 130 139 148 138 170 212 348 316 283 153 147 269 279 244 95 62 198 239 252 254 263 272 106 260 254 238 233 224
194 184 182 186 189 195 205 209 184 192 207 178 176 184 182 178 180 118 159 210 174 94 102 135 129 108 124 133 74 62 73 33 50 143 59 57 68 34 197 183 136 116 109 278 223 56 34 204 197 174 178 189 131 37 337 197 165 134 144 104 93 88 78 94 185 127 105 281 253 164 163 248 281 247 127 119 213 229 244 250 263 300 318 277 269 243 219 206
197 187 184 181 185 195 203 231 219 197 194 182 176 176 172 171 178 148 167 219 171 91 71 144 161 149 153 152 121 25 95 48 53 109 90 87 58 35 58 104 82 112 104 9 45 60 44 36 314 225 181 139 105 68 21 16 103 145 151 108 96 90 75 86 42 59 248 268 244 161 174 214 284 261 143 153 210 222 241 256 274 312 304 288 316 270 215 197
198 192 185 181 189 192 189 229 226 198 186 183 169 162 162 129 144 177 181 228 154 136 142 152 144 154 163 162 155 155 118 64 150 153 142 151 108 97 151 159 118 124 191 213 136 44 30 162 168 149 73 114 117 83 49 59 123 158 156 132 135 133 135 166 124 135 240 249 65 53 213 220 245 242 135 162 284 248 238 261 273 276 283 45 87 234 213 209
197 194 185 183 193 193 190 218 216 199 185 164 157 157 167 136 196 213 185 119 178 182 162 153 170 172 168 156 127 146 139 104 165 175 154 162 175 171 190 194 166 176 227 205 180 96 218 197 124 94 280 197 155 110 78 77 216 223 163 158 192 214 210 237 203 179 240 241 61 3 283 233 247 263 284 275 267 243 222 239 257 266 269 221 185 201 194 203
198 192 183 186 193 196 202 210 196 193 175 155 155 154 159 165 200 213 193 162 184 163 119 107 120 160 158 149 145 144 115 118 168 181 145 153 190 197 220 233 163 205 230 174 165 178 207 211 134 151 185 219 196 168 150 181 195 196 178 171 194 197 213 236 199 213 268 252 48 24 172 242 270 282 259 252 257 250 227 232 243 255 262 249 220 215 212 206
199 190 184 191 198 202 204 199 186 183 168 156 160 137 161 195 206 203 198 177 62 46 60 101 117 135 154 154 164 162 146 164 167 165 157 159 189 209 218 225 212 205 77 154 180 190 215 237 175 169 157 179 196 210 127 143 164 192 185 171 207 199 210 231 205 239 276 74 106 143 201 232 255 336 243 250 280 295 266 249 248 257 257 253 257 244 221 210
198 190 185 191 201 207 201 193 183 176 167 161 170 162 180 206 211 207 194 132 102 100 60 88 120 134 163 57 17 200 200 201 169 155 168 176 192 200 197 204 203 186 150 188 195 169 224 264 145 138 348 171 183 241 35 112 152 185 58 68 237 230 176 234 324 57 34 357 214 201 237 240 254 296 270 250 272 282 271 270 264 260 249 231 249 246 220 197
190 188 184 187 199 207 201 193 177 172 172 168 173 179 204 210 202 201 172 124 136 137 115 110 113 129 170 134 193 219 256 111 161 173 193 205 234 212 205 211 193 186 184 186 173 147 205 278 38 40 345 160 182 324 57 177 183 153 164 196 221 340 70 130 225 81 98 266 245 188 248 266 289 285 262 231 236 234 240 258 242 249 249 228 245 245 216 186
181 187 186 190 200 204 200 194 173 168 174 182 187 194 215 215 184 123 151 123 127 139 135 149 171 167 170 171 197 196 187 137 165 194 186 176 234 206 200 236 188 190 202 195 188 218 202 200 35 47 170 110 343 300 75 6 9 138 184 186 145 13 16 179 240 204 176 251 264 200 254 272 270 270 305 111 220 224 232 245 240 246 249 235 246 246 195 175
177 184 193 203 204 202 197 190 168 157 148 163 202 210 207 212 197 125 148 126 132 151 163 172 179 185 179 182 188 174 177 170 167 192 176 169 230 188 175 202 195 194 203 185 173 235 202 216 41 35 230 77 45 207 150 56 9 35 206 161 140 222 206 175 215 230 215 243 267 239 259 266 241 230 192 138 194 214 226 231 235 243 242 236 245 242 161 169
172 171 215 211 207 205 195 180 156 142 142 175 203 218 198 177 120 133 153 149 151 164 187 188 179 195 190 179 149 150 182 184 158 175 187 181 217 181 171 190 195 192 189 168 177 168 154 229 222 100 290 31 131 211 196 164 120 23 184 170 255 275 229 181 169 226 232 229 265 274 271 259 235 194 184 203 207 215 220 218 227 236 235 237 243 222 159 188
170 160 239 202 203 201 186 167 142 145 187 194 206 214 155 102 110 59 64 155 160 166 191 191 170 163 173 157 129 155 189 195 164 182 203 184 203 208 183 184 159 164 176 173 194 160 133 228 219 120 298 222 186 206 204 183 168 180 191 181 182 174 352 252 185 136 253 230 242 268 268 261 230 134 176 199 201 208 209 210 225 232 230 234 241 212 173 188
155 189 203 184 189 185 173 159 146 166 188 210 220 219 100 47 131 102 14 52 90 19 164 176 173 172 157 151 179 177 171 183 182 195 213 195 207 223 190 180 153 133 144 170 204 198 169 197 182 154 195 207 199 355 252 219 177 183 198 192 186 169 151 201 208 176 228 246 221 217 266 268 248 126 182 186 186 207 210 208 221 243 248 242 243 291 238 207
160 198 175 175 178 171 162 171 146 148 195 214 221 232 85 47 57 86 281 150 104 48 62 132 174 175 166 166 174 165 164 178 187 199 222 213 214 217 191 175 156 147 147 161 194 182 127 139 179 183 195 202 22 33 293 283 344 12 257 207 179 170 179 199 213 191 170 230 257 157 272 273 260 132 199 185 176 218 253 235 226 243 263 283 168 172 257 279
178 177 129 174 175 165 160 200 140 133 230 247 292 316 62 50 358 171 199 194 169 135 150 164 157 182 195 170 150 165 175 183 189 198 216 221 218 209 161 157 153 153 157 151 146 131 106 157 202 209 178 94 67 90 162 324 204 218 249 192 182 196 200 202 221 185 165 201 203 178 247 261 272 96 301 326 307 279 270 259 249 251 264 278 254 188 150 272
172 138 59 179 177 168 172 201 152 171 213 198 255 243 282 6 249 219 202 193 184 138 149 169 184 200 189 147 157 177 182 191 202 203 209 215 215 156 137 162 162 164 181 177 163 168 170 183 197 207 216 199 187 197 192 171 193 221 218 195 200 202 189 134 30 169 217 223 202 188 245 252 154 80 265 325 302 271 249 236 252 265 261 243 247 215 153 200
161 149 37 184 181 178 191 184 149 179 192 155 195 218 223 247 229 220 247 175 137 141 157 167 167 153 134 152 176 180 191 211 216 202 205 215 216 25 159 177 179 186 199 163 158 171 175 177 179 193 214 216 212 215 199 163 168 217 215 191 199 200 185 178 199 201 229 230 199 197 244 249 153 120 191 204 273 267 255 220 228 252 256 251 245 233 206 199
168 175 132 181 193 198 202 166 152 168 179 170 187 203 205 216 226 197 201 230 270 151 143 34 150 156 132 163 182 187 206 225 226 181 200 208 189 354 204 189 197 201 176 125 154 165 164 193 192 203 218 225 234 239 150 135 156 198 202 183 192 203 194 192 211 216 220 221 204 219 235 253 260 203 165 189 235 248 264 262 258 259 253 249 242 232 235 238
235 206 172 166 209 219 200 164 171 180 177 177 184 176 191 208 218 178 197 217 202 157 165 353 173 187 177 177 191 196 200 215 215 174 195 200 152 43 34 194 221 216 154 145 168 154 133 220 209 217 227 237 248 240 155 156 176 196 198 187 193 201 196 198 216 222 205 143 241 237 222 243 261 246 182 192 222 231 256 251 254 262 254 244 230 207 226 240
186 252 215 220 221 203 203 185 179 182 176 173 179 174 185 201 205 191 198 208 201 168 183 264 236 211 202 186 190 197 186 198 218 214 197 175 129 128 110 56 240 213 140 175 184 158 187 219 212 217 228 239 245 222 164 182 191 191 201 198 194 195 196 205 218 222 205 193 244 249 213 217 252 254 199 193 214 227 238 234 239 255 254 251 234 210 224 232
175 248 280 314 300 212 207 184 174 180 177 170 180 187 184 196 202 199 186 167 197 211 192 215 229 216 215 210 177 186 185 190 220 225 193 160 164 168 162 183 218 184 161 195 194 167 211 221 216 213 223 239 240 212 166 186 183 192 214 209 202 200 200 207 217 221 216 223 247 259 250 243 253 257 193 195 210 228 242 243 243 243 239 239 235 226 228 229
168 238 250 324 311 270 241 166 167 181 181 174 189 194 186 198 201 196 181 168 187 198 193 217 228 215 215 221 210 215 210 202 224 227 183 172 193 194 184 181 159 142 183 200 187 221 222 218 213 197 212 241 238 205 163 181 186 209 223 218 216 213 207 211 220 223 220 235 251 266 278 267 257 214 232 234 199 219 238 238 242 246 242 236 234 231 227 227
168 52 95 90 265 197 194 154 164 179 184 184 199 193 191 206 199 181 187 195 193 184 186 212 223 212 210 220 222 233 232 222 224 203 148 164 191 194 212 177 129 141 177 191 159 197 213 214 193 153 205 242 233 165 152 171 188 237 241 232 225 215 203 207 219 221 214 224 245 257 263 259 238 104 243 243 193 221 233 232 240 250 248 242 236 232 229 229
179 67 94 109 315 199 181 175 177 185 187 193 202 193 196 211 189 163 183 219 209 203 197 206 209 191 198 216 220 228 230 229 228 176 124 129 125 111 119 125 127 145 163 175 172 153 176 198 212 180 213 245 225 135 136 133 141 246 241 235 229 210 181 201 222 223 213 212 226 231 239 246 237 111 248 234 212 230 239 238 241 247 252 254 249 238 231 231